date,time,SUV Intensity [MED/Hr],UV Index,Daily total [MED],Since Last [MED]
02/05/2022,00:07:35,0.000,0.0,0.0,0.0
02/05/2022,00:08:35,-0.001,0.0,0.0,0.0
02/05/2022,00:09:35,0.000,0.0,0.0,0.0
02/05/2022,00:10:35,-0.001,0.0,0.0,0.0
02/05/2022,00:11:44,0.000,0.0,0.0,0.0
02/05/2022,00:13:36,0.000,0.0,0.0,0.0
02/05/2022,00:14:35,0.001,0.0,0.0,0.0
02/05/2022,00:15:35,0.001,0.0,0.0,0.0
02/05/2022,00:16:35,0.000,0.0,0.0,0.0
02/05/2022,00:17:35,0.000,0.0,0.0,0.0
02/05/2022,00:18:35,0.000,0.0,0.0,0.0
02/05/2022,00:19:43,0.000,0.0,0.0,0.0
02/05/2022,00:21:37,-0.000,0.0,0.0,0.0
02/05/2022,00:22:35,0.000,0.0,0.0,0.0
02/05/2022,00:23:35,0.000,0.0,0.0,0.0
02/05/2022,00:24:35,0.001,0.0,0.0,0.0
02/05/2022,00:25:35,0.000,0.0,0.0,0.0
02/05/2022,00:26:35,-0.001,0.0,0.0,0.0
02/05/2022,00:27:37,-0.001,0.0,0.0,0.0
02/05/2022,00:28:35,0.000,0.0,0.0,0.0
02/05/2022,00:29:44,-0.001,0.0,0.0,0.0
02/05/2022,00:31:36,0.000,0.0,0.0,0.0
02/05/2022,00:32:34,0.000,0.0,0.0,0.0
02/05/2022,00:33:35,0.000,0.0,0.0,0.0
02/05/2022,00:34:35,-0.001,0.0,0.0,0.0
02/05/2022,00:35:35,-0.001,0.0,0.0,0.0
02/05/2022,00:36:35,0.001,0.0,0.0,0.0
02/05/2022,00:37:35,0.000,0.0,0.0,0.0
02/05/2022,00:38:35,0.000,0.0,0.0,0.0
02/05/2022,00:39:35,-0.000,0.0,0.0,0.0
02/05/2022,00:40:35,0.001,0.0,0.0,0.0
02/05/2022,00:41:36,0.000,0.0,0.0,0.0
02/05/2022,00:42:35,-0.001,0.0,0.0,0.0
02/05/2022,00:43:36,0.001,0.0,0.0,0.0
02/05/2022,00:44:36,0.000,0.0,0.0,0.0
02/05/2022,00:45:51,-0.001,0.0,0.0,0.0
02/05/2022,00:47:35,0.000,0.0,0.0,0.0
02/05/2022,00:48:35,0.000,0.0,0.0,0.0
02/05/2022,00:49:35,0.001,0.0,0.0,0.0
02/05/2022,00:50:36,0.001,0.0,0.0,0.0
02/05/2022,00:51:34,0.000,0.0,0.0,0.0
02/05/2022,00:52:35,0.000,0.0,0.0,0.0
02/05/2022,00:53:35,0.000,0.0,0.0,0.0
02/05/2022,00:54:44,0.000,0.0,0.0,0.0
02/05/2022,00:55:35,0.001,0.0,0.0,0.0
02/05/2022,00:56:35,-0.000,0.0,0.0,0.0
02/05/2022,00:57:35,0.000,0.0,0.0,0.0
02/05/2022,00:58:36,0.001,0.0,0.0,0.0
02/05/2022,00:59:35,0.001,0.0,0.0,0.0
02/05/2022,01:00:35,-0.000,0.0,0.0,0.0
02/05/2022,01:01:35,-0.000,0.0,0.0,0.0
02/05/2022,01:02:35,0.000,0.0,0.0,0.0
02/05/2022,01:03:35,0.000,0.0,0.0,0.0
02/05/2022,01:04:35,0.000,0.0,0.0,0.0
02/05/2022,01:05:35,-0.000,0.0,0.0,0.0
02/05/2022,01:06:35,0.000,0.0,0.0,0.0
02/05/2022,01:07:44,0.001,0.0,0.0,0.0
02/05/2022,01:09:44,-0.001,0.0,0.0,0.0
02/05/2022,01:11:35,0.001,0.0,0.0,0.0
02/05/2022,01:12:35,0.001,0.0,0.0,0.0
02/05/2022,01:13:35,0.000,0.0,0.0,0.0
02/05/2022,01:14:35,-0.001,0.0,0.0,0.0
02/05/2022,01:15:44,0.001,0.0,0.0,0.0
02/05/2022,01:16:35,0.000,0.0,0.0,0.0
02/05/2022,01:17:35,0.000,0.0,0.0,0.0
02/05/2022,01:18:36,0.001,0.0,0.0,0.0
02/05/2022,01:19:35,0.000,0.0,0.0,0.0
02/05/2022,01:20:35,0.001,0.0,0.0,0.0
02/05/2022,01:21:35,0.000,0.0,0.0,0.0
02/05/2022,01:22:35,0.001,0.0,0.0,0.0
02/05/2022,01:23:35,0.000,0.0,0.0,0.0
02/05/2022,01:24:35,0.000,0.0,0.0,0.0
02/05/2022,01:25:44,0.000,0.0,0.0,0.0
02/05/2022,01:26:35,0.000,0.0,0.0,0.0
02/05/2022,01:27:35,0.001,0.0,0.0,0.0
02/05/2022,01:28:35,0.000,0.0,0.0,0.0
02/05/2022,01:29:35,0.000,0.0,0.0,0.0
02/05/2022,01:30:35,-0.000,0.0,0.0,0.0
02/05/2022,01:31:35,0.001,0.0,0.0,0.0
02/05/2022,01:32:36,0.000,0.0,0.0,0.0
02/05/2022,01:33:56,-0.001,0.0,0.0,0.0
02/05/2022,01:35:38,0.000,0.0,0.0,0.0
02/05/2022,01:36:44,-0.000,0.0,0.0,0.0
02/05/2022,01:37:34,-0.001,0.0,0.0,0.0
02/05/2022,01:38:35,0.000,0.0,0.0,0.0
02/05/2022,01:39:35,0.000,0.0,0.0,0.0
02/05/2022,01:40:35,0.000,0.0,0.0,0.0
02/05/2022,01:41:35,0.001,0.0,0.0,0.0
02/05/2022,01:42:35,0.000,0.0,0.0,0.0
02/05/2022,01:43:36,0.000,0.0,0.0,0.0
02/05/2022,01:44:52,0.000,0.0,0.0,0.0
02/05/2022,01:46:37,-0.000,0.0,0.0,0.0
02/05/2022,01:47:35,0.001,0.0,0.0,0.0
02/05/2022,01:48:35,0.000,0.0,0.0,0.0
02/05/2022,01:49:44,0.000,0.0,0.0,0.0
02/05/2022,01:50:35,0.000,0.0,0.0,0.0
02/05/2022,01:51:36,0.000,0.0,0.0,0.0
02/05/2022,01:52:35,0.000,0.0,0.0,0.0
02/05/2022,01:53:35,-0.001,0.0,0.0,0.0
02/05/2022,01:54:44,0.000,0.0,0.0,0.0
02/05/2022,01:56:36,-0.001,0.0,0.0,0.0
02/05/2022,01:57:35,-0.001,0.0,0.0,0.0
02/05/2022,01:58:36,0.000,0.0,0.0,0.0
02/05/2022,01:59:35,0.000,0.0,0.0,0.0
02/05/2022,02:00:35,-0.001,0.0,0.0,0.0
02/05/2022,02:01:43,0.001,0.0,0.0,0.0
02/05/2022,02:02:35,-0.000,0.0,0.0,0.0
02/05/2022,02:03:36,0.000,0.0,0.0,0.0
02/05/2022,02:04:35,0.000,0.0,0.0,0.0
02/05/2022,02:05:36,0.000,0.0,0.0,0.0
02/05/2022,02:06:35,0.000,0.0,0.0,0.0
02/05/2022,02:07:35,0.000,0.0,0.0,0.0
02/05/2022,02:08:35,-0.001,0.0,0.0,0.0
02/05/2022,02:09:35,0.000,0.0,0.0,0.0
02/05/2022,02:10:35,0.000,0.0,0.0,0.0
02/05/2022,02:11:44,-0.001,0.0,0.0,0.0
02/05/2022,02:12:44,0.000,0.0,0.0,0.0
02/05/2022,02:13:35,0.001,0.0,0.0,0.0
02/05/2022,02:14:35,0.000,0.0,0.0,0.0
02/05/2022,02:15:35,0.000,0.0,0.0,0.0
02/05/2022,02:16:35,0.000,0.0,0.0,0.0
02/05/2022,02:17:35,0.000,0.0,0.0,0.0
02/05/2022,02:18:35,0.000,0.0,0.0,0.0
02/05/2022,02:19:35,0.000,0.0,0.0,0.0
02/05/2022,02:20:35,-0.000,0.0,0.0,0.0
02/05/2022,02:21:35,0.000,0.0,0.0,0.0
02/05/2022,02:22:43,0.000,0.0,0.0,0.0
02/05/2022,02:23:34,0.000,0.0,0.0,0.0
02/05/2022,02:24:35,0.001,0.0,0.0,0.0
02/05/2022,02:25:37,0.000,0.0,0.0,0.0
02/05/2022,02:26:35,0.000,0.0,0.0,0.0
02/05/2022,02:27:35,0.001,0.0,0.0,0.0
02/05/2022,02:28:35,0.000,0.0,0.0,0.0
02/05/2022,02:29:36,-0.001,0.0,0.0,0.0
02/05/2022,02:30:35,0.000,0.0,0.0,0.0
02/05/2022,02:31:35,0.000,0.0,0.0,0.0
02/05/2022,02:32:36,-0.001,0.0,0.0,0.0
02/05/2022,02:33:44,0.001,0.0,0.0,0.0
02/05/2022,02:34:35,0.000,0.0,0.0,0.0
02/05/2022,02:35:35,0.000,0.0,0.0,0.0
02/05/2022,02:36:35,0.000,0.0,0.0,0.0
02/05/2022,02:37:36,0.000,0.0,0.0,0.0
02/05/2022,02:38:35,0.000,0.0,0.0,0.0
02/05/2022,02:39:35,0.000,0.0,0.0,0.0
02/05/2022,02:40:35,0.000,0.0,0.0,0.0
02/05/2022,02:41:35,0.000,0.0,0.0,0.0
02/05/2022,02:42:35,0.000,0.0,0.0,0.0
02/05/2022,02:43:43,0.000,0.0,0.0,0.0
02/05/2022,02:44:35,0.000,0.0,0.0,0.0
02/05/2022,02:45:35,0.000,0.0,0.0,0.0
02/05/2022,02:46:36,0.000,0.0,0.0,0.0
02/05/2022,02:47:35,0.000,0.0,0.0,0.0
02/05/2022,02:48:35,0.000,0.0,0.0,0.0
02/05/2022,02:49:35,-0.001,0.0,0.0,0.0
02/05/2022,02:50:45,0.000,0.0,0.0,0.0
02/05/2022,02:52:36,0.000,0.0,0.0,0.0
02/05/2022,02:53:35,0.000,0.0,0.0,0.0
02/05/2022,02:54:37,0.000,0.0,0.0,0.0
02/05/2022,02:55:36,0.000,0.0,0.0,0.0
02/05/2022,02:56:36,0.001,0.0,0.0,0.0
02/05/2022,02:57:36,0.000,0.0,0.0,0.0
02/05/2022,02:58:35,0.000,0.0,0.0,0.0
02/05/2022,02:59:36,0.000,0.0,0.0,0.0
02/05/2022,03:00:35,0.000,0.0,0.0,0.0
02/05/2022,03:01:43,-0.001,0.0,0.0,0.0
02/05/2022,03:02:35,0.001,0.0,0.0,0.0
02/05/2022,03:03:35,0.001,0.0,0.0,0.0
02/05/2022,03:04:35,0.001,0.0,0.0,0.0
02/05/2022,03:05:36,0.000,0.0,0.0,0.0
02/05/2022,03:06:35,0.001,0.0,0.0,0.0
02/05/2022,03:07:35,0.000,0.0,0.0,0.0
02/05/2022,03:08:35,0.000,0.0,0.0,0.0
02/05/2022,03:09:35,0.000,0.0,0.0,0.0
02/05/2022,03:10:35,0.001,0.0,0.0,0.0
02/05/2022,03:11:36,0.000,0.0,0.0,0.0
02/05/2022,03:12:36,-0.001,0.0,0.0,0.0
02/05/2022,03:13:35,0.000,0.0,0.0,0.0
02/05/2022,03:14:35,0.000,0.0,0.0,0.0
02/05/2022,03:15:36,0.000,0.0,0.0,0.0
02/05/2022,03:16:44,0.000,0.0,0.0,0.0
02/05/2022,03:17:34,0.000,0.0,0.0,0.0
02/05/2022,03:18:35,-0.001,0.0,0.0,0.0
02/05/2022,03:19:36,0.000,0.0,0.0,0.0
02/05/2022,03:20:35,0.000,0.0,0.0,0.0
02/05/2022,03:21:35,-0.000,0.0,0.0,0.0
02/05/2022,03:22:36,-0.001,0.0,0.0,0.0
02/05/2022,03:23:35,0.001,0.0,0.0,0.0
02/05/2022,03:24:35,0.000,0.0,0.0,0.0
02/05/2022,03:25:35,0.000,0.0,0.0,0.0
02/05/2022,03:26:44,0.001,0.0,0.0,0.0
02/05/2022,03:27:35,-0.001,0.0,0.0,0.0
02/05/2022,03:28:36,-0.001,0.0,0.0,0.0
02/05/2022,03:29:43,0.000,0.0,0.0,0.0
02/05/2022,03:30:35,0.001,0.0,0.0,0.0
02/05/2022,03:31:35,0.000,0.0,0.0,0.0
02/05/2022,03:32:35,-0.001,0.0,0.0,0.0
02/05/2022,03:33:35,0.000,0.0,0.0,0.0
02/05/2022,03:34:36,0.000,0.0,0.0,0.0
02/05/2022,03:35:35,0.000,0.0,0.0,0.0
02/05/2022,03:36:35,-0.000,0.0,0.0,0.0
02/05/2022,03:37:44,0.000,0.0,0.0,0.0
02/05/2022,03:38:35,0.000,0.0,0.0,0.0
02/05/2022,03:39:37,0.001,0.0,0.0,0.0
02/05/2022,03:40:35,0.000,0.0,0.0,0.0
02/05/2022,03:41:36,0.000,0.0,0.0,0.0
02/05/2022,03:42:36,0.001,0.0,0.0,0.0
02/05/2022,03:43:35,0.000,0.0,0.0,0.0
02/05/2022,03:44:44,-0.000,0.0,0.0,0.0
02/05/2022,03:46:36,0.000,0.0,0.0,0.0
02/05/2022,03:47:35,0.000,0.0,0.0,0.0
02/05/2022,03:48:36,0.001,0.0,0.0,0.0
02/05/2022,03:49:36,0.000,0.0,0.0,0.0
02/05/2022,03:50:35,0.000,0.0,0.0,0.0
02/05/2022,03:51:35,0.000,0.0,0.0,0.0
02/05/2022,03:52:36,0.000,0.0,0.0,0.0
02/05/2022,03:53:35,-0.000,0.0,0.0,0.0
02/05/2022,03:54:44,-0.000,0.0,0.0,0.0
02/05/2022,03:55:36,0.000,0.0,0.0,0.0
02/05/2022,03:56:35,0.000,0.0,0.0,0.0
02/05/2022,03:57:35,0.000,0.0,0.0,0.0
02/05/2022,03:58:36,0.001,0.0,0.0,0.0
02/05/2022,03:59:36,0.000,0.0,0.0,0.0
02/05/2022,04:00:35,0.001,0.0,0.0,0.0
02/05/2022,04:01:36,0.000,0.0,0.0,0.0
02/05/2022,04:02:36,0.000,0.0,0.0,0.0
02/05/2022,04:03:36,0.000,0.0,0.0,0.0
02/05/2022,04:04:35,-0.001,0.0,0.0,0.0
02/05/2022,04:05:35,0.000,0.0,0.0,0.0
02/05/2022,04:06:36,-0.001,0.0,0.0,0.0
02/05/2022,04:07:35,0.001,0.0,0.0,0.0
02/05/2022,04:08:35,0.000,0.0,0.0,0.0
02/05/2022,04:09:36,0.000,0.0,0.0,0.0
02/05/2022,04:10:35,0.001,0.0,0.0,0.0
02/05/2022,04:11:35,0.000,0.0,0.0,0.0
02/05/2022,04:12:36,0.000,0.0,0.0,0.0
02/05/2022,04:13:35,0.001,0.0,0.0,0.0
02/05/2022,04:14:35,0.001,0.0,0.0,0.0
02/05/2022,04:15:45,0.000,0.0,0.0,0.0
02/05/2022,04:17:26,0.000,0.0,0.0,0.0
02/05/2022,04:18:37,0.000,0.0,0.0,0.0
02/05/2022,04:19:35,-0.000,0.0,0.0,0.0
02/05/2022,04:20:35,0.000,0.0,0.0,0.0
02/05/2022,04:21:36,-0.001,0.0,0.0,0.0
02/05/2022,04:22:35,0.000,0.0,0.0,0.0
02/05/2022,04:23:36,0.000,0.0,0.0,0.0
02/05/2022,04:24:35,0.001,0.0,0.0,0.0
02/05/2022,04:25:35,0.001,0.0,0.0,0.0
02/05/2022,04:26:43,0.001,0.0,0.0,0.0
02/05/2022,04:27:35,0.001,0.0,0.0,0.0
02/05/2022,04:28:36,0.001,0.0,0.0,0.0
02/05/2022,04:29:36,0.001,0.0,0.0,0.0
02/05/2022,04:30:36,0.001,0.0,0.0,0.0
02/05/2022,04:31:35,-0.000,0.0,0.0,0.0
02/05/2022,04:32:35,0.000,0.0,0.0,0.0
02/05/2022,04:33:43,0.001,0.0,0.0,0.0
02/05/2022,04:34:34,0.001,0.0,0.0,0.0
02/05/2022,04:35:35,0.001,0.0,0.0,0.0
02/05/2022,04:36:36,0.001,0.0,0.0,0.0
02/05/2022,04:37:36,0.001,0.0,0.0,0.0
02/05/2022,04:38:35,0.001,0.0,0.0,0.0
02/05/2022,04:39:36,0.001,0.0,0.0,0.0
02/05/2022,04:40:35,0.001,0.0,0.0,0.0
02/05/2022,04:41:44,0.002,0.0,0.0,0.0
02/05/2022,04:42:35,0.002,0.0,0.0,0.0
02/05/2022,04:43:35,0.002,0.0,0.0,0.0
02/05/2022,04:44:44,0.002,0.0,0.0,0.0
02/05/2022,04:46:36,0.002,0.0,0.0,0.0
02/05/2022,04:47:34,0.002,0.0,0.0,0.0
02/05/2022,04:48:37,0.002,0.0,0.0,0.0
02/05/2022,04:49:36,0.003,0.0,0.0,0.0
02/05/2022,04:50:35,0.002,0.0,0.0,0.0
02/05/2022,04:51:36,0.003,0.0,0.0,0.0
02/05/2022,04:52:36,0.003,0.0,0.0,0.0
02/05/2022,04:53:36,0.002,0.0,0.0,0.0
02/05/2022,04:54:44,0.003,0.0,0.0,0.0
02/05/2022,04:55:35,0.003,0.0,0.0,0.0
02/05/2022,04:56:36,0.003,0.0,0.0,0.0
02/05/2022,04:57:35,0.004,0.0,0.0,0.0
02/05/2022,04:58:35,0.004,0.0,0.0,0.0
02/05/2022,04:59:35,0.004,0.0,0.0,0.0
02/05/2022,05:00:35,0.004,0.0,0.0,0.0
02/05/2022,05:01:35,0.004,0.0,0.0,0.0
02/05/2022,05:02:36,0.004,0.0,0.0,0.0
02/05/2022,05:03:35,0.005,0.0,0.0,0.0
02/05/2022,05:04:35,0.005,0.0,0.0,0.0
02/05/2022,05:05:36,0.005,0.0,0.0,0.0
02/05/2022,05:06:36,0.005,0.0,0.0,0.0
02/05/2022,05:07:35,0.005,0.0,0.0,0.0
02/05/2022,05:08:35,0.006,0.0,0.0,0.0
02/05/2022,05:09:44,0.006,0.0,0.0,0.0
02/05/2022,05:10:35,0.006,0.0,0.0,0.0
02/05/2022,05:11:36,0.007,0.0,0.0,0.0
02/05/2022,05:12:35,0.008,0.0,0.0,0.0
02/05/2022,05:13:36,0.009,0.0,0.0,0.0
02/05/2022,05:14:35,0.009,0.0,0.0,0.0
02/05/2022,05:15:36,0.009,0.0,0.001,0.001
02/05/2022,05:16:35,0.010,0.0,0.001,0.0
02/05/2022,05:17:36,0.010,0.0,0.001,0.0
02/05/2022,05:18:35,0.010,0.0,0.001,0.0
02/05/2022,05:19:27,0.010,0.0,0.001,0.0
02/05/2022,05:20:36,0.011,0.0,0.001,0.0
02/05/2022,05:21:23,0.011,0.0,0.002,0.001
02/05/2022,05:22:36,0.011,0.0,0.002,0.0
02/05/2022,05:23:52,0.011,0.0,0.002,0.0
02/05/2022,05:25:36,0.012,0.0,0.002,0.0
02/05/2022,05:26:35,0.013,0.0,0.003,0.001
02/05/2022,05:27:35,0.013,0.0,0.003,0.0
02/05/2022,05:28:36,0.014,0.0,0.003,0.0
02/05/2022,05:29:36,0.014,0.0,0.003,0.0
02/05/2022,05:30:44,0.015,0.0,0.004,0.001
02/05/2022,05:31:35,0.015,0.0,0.004,0.0
02/05/2022,05:32:36,0.016,0.0,0.004,0.0
02/05/2022,05:33:36,0.017,0.0,0.004,0.0
02/05/2022,05:34:36,0.017,0.0,0.005,0.001
02/05/2022,05:35:36,0.018,0.0,0.005,0.0
02/05/2022,05:36:36,0.018,0.0,0.005,0.0
02/05/2022,05:37:44,0.018,0.0,0.005,0.0
02/05/2022,05:39:36,0.020,0.0,0.006,0.001
02/05/2022,05:40:35,0.021,0.0,0.006,0.0
02/05/2022,05:41:37,0.021,0.0,0.007,0.001
02/05/2022,05:42:35,0.022,0.0,0.007,0.0
02/05/2022,05:43:36,0.023,0.0,0.008,0.001
02/05/2022,05:44:35,0.023,0.0,0.008,0.0
02/05/2022,05:45:37,0.024,0.0,0.008,0.0
02/05/2022,05:46:36,0.024,0.0,0.009,0.001
02/05/2022,05:47:35,0.025,0.0,0.009,0.0
02/05/2022,05:48:36,0.025,0.0,0.01,0.001
02/05/2022,05:49:36,0.026,0.0,0.01,0.0
02/05/2022,05:50:36,0.026,0.0,0.01,0.0
02/05/2022,05:51:36,0.026,0.0,0.011,0.001
02/05/2022,05:52:35,0.026,0.0,0.011,0.0
02/05/2022,05:53:36,0.027,0.0,0.012,0.001
02/05/2022,05:54:36,0.028,0.0,0.012,0.0
02/05/2022,05:55:43,0.028,0.0,0.013,0.001
02/05/2022,05:56:35,0.028,0.0,0.013,0.0
02/05/2022,05:57:36,0.030,0.0,0.014,0.001
02/05/2022,05:58:36,0.030,0.0,0.014,0.0
02/05/2022,05:59:35,0.031,0.0,0.015,0.001
02/05/2022,06:00:35,0.033,0.0,0.015,0.0
02/05/2022,06:01:36,0.034,0.0,0.016,0.001
02/05/2022,06:02:36,0.035,0.0,0.016,0.0
02/05/2022,06:03:36,0.034,0.0,0.017,0.001
02/05/2022,06:04:36,0.037,0.0,0.017,0.0
02/05/2022,06:05:36,0.037,0.0,0.018,0.001
02/05/2022,06:06:36,0.037,0.0,0.019,0.001
02/05/2022,06:07:36,0.038,0.0,0.019,0.0
02/05/2022,06:08:35,0.039,0.0,0.02,0.001
02/05/2022,06:09:35,0.040,0.0,0.021,0.001
02/05/2022,06:10:36,0.041,0.0,0.021,0.0
02/05/2022,06:11:36,0.043,0.0,0.022,0.001
02/05/2022,06:12:35,0.043,0.0,0.023,0.001
02/05/2022,06:13:44,0.043,0.0,0.024,0.001
02/05/2022,06:14:36,0.044,0.0,0.024,0.0
02/05/2022,06:15:35,0.045,0.0,0.025,0.001
02/05/2022,06:16:36,0.045,0.0,0.026,0.001
02/05/2022,06:17:35,0.044,0.0,0.026,0.0
02/05/2022,06:18:36,0.046,0.0,0.027,0.001
02/05/2022,06:19:35,0.047,0.0,0.028,0.001
02/05/2022,06:20:36,0.048,0.0,0.029,0.001
02/05/2022,06:21:36,0.049,0.0,0.029,0.0
02/05/2022,06:22:35,0.050,0.0,0.03,0.001
02/05/2022,06:23:44,0.050,0.0,0.031,0.001
02/05/2022,06:24:36,0.051,0.0,0.032,0.001
02/05/2022,06:25:35,0.053,0.0,0.033,0.001
02/05/2022,06:26:36,0.054,0.0,0.034,0.001
02/05/2022,06:27:36,0.055,0.0,0.035,0.001
02/05/2022,06:28:35,0.056,0.0,0.036,0.001
02/05/2022,06:29:36,0.058,0.0,0.036,0.0
02/05/2022,06:30:35,0.059,0.0,0.037,0.001
02/05/2022,06:31:36,0.061,0.0,0.038,0.001
02/05/2022,06:32:35,0.062,0.0,0.039,0.001
02/05/2022,06:33:35,0.063,0.0,0.041,0.002
02/05/2022,06:34:44,0.065,0.0,0.042,0.001
02/05/2022,06:35:36,0.066,0.0,0.043,0.001
02/05/2022,06:36:36,0.066,0.0,0.044,0.001
02/05/2022,06:37:37,0.067,0.0,0.045,0.001
02/05/2022,06:38:36,0.069,0.0,0.046,0.001
02/05/2022,06:39:35,0.071,0.0,0.047,0.001
02/05/2022,06:40:36,0.072,0.0,0.048,0.001
02/05/2022,06:41:46,0.074,0.0,0.05,0.002
02/05/2022,06:43:36,0.076,0.0,0.052,0.002
02/05/2022,06:44:36,0.078,0.0,0.053,0.001
02/05/2022,06:45:36,0.080,0.0,0.055,0.002
02/05/2022,06:46:36,0.082,0.0,0.056,0.001
02/05/2022,06:47:35,0.084,0.0,0.057,0.001
02/05/2022,06:48:35,0.086,0.0,0.059,0.002
02/05/2022,06:49:36,0.087,0.0,0.06,0.001
02/05/2022,06:50:36,0.088,0.0,0.062,0.002
02/05/2022,06:51:44,0.087,0.0,0.063,0.001
02/05/2022,06:53:45,0.090,0.0,0.066,0.003
02/05/2022,06:55:36,0.096,0.0,0.069,0.003
02/05/2022,06:56:36,0.100,0.0,0.071,0.002
02/05/2022,06:57:35,0.105,0.0,0.073,0.002
02/05/2022,06:58:36,0.108,0.0,0.074,0.001
02/05/2022,06:59:36,0.110,0.0,0.076,0.002
02/05/2022,07:00:35,0.111,0.0,0.078,0.002
02/05/2022,07:01:36,0.113,0.0,0.08,0.002
02/05/2022,07:02:36,0.113,0.0,0.082,0.002
02/05/2022,07:03:36,0.115,0.0,0.084,0.002
02/05/2022,07:04:36,0.119,0.0,0.086,0.002
02/05/2022,07:05:36,0.124,0.0,0.088,0.002
02/05/2022,07:06:36,0.129,0.0,0.09,0.002
02/05/2022,07:07:35,0.133,0.0,0.092,0.002
02/05/2022,07:08:36,0.138,0.0,0.094,0.002
02/05/2022,07:09:44,0.143,0.0,0.097,0.003
02/05/2022,07:11:37,0.151,0.0,0.101,0.004
02/05/2022,07:12:35,0.154,0.0,0.104,0.003
02/05/2022,07:13:36,0.158,0.0,0.107,0.003
02/05/2022,07:14:36,0.161,0.0,0.109,0.002
02/05/2022,07:15:36,0.166,0.0,0.112,0.003
02/05/2022,07:16:36,0.170,0.0,0.115,0.003
02/05/2022,07:17:44,0.174,0.0,0.118,0.003
02/05/2022,07:18:35,0.176,0.0,0.121,0.003
02/05/2022,07:19:36,0.178,0.0,0.123,0.002
02/05/2022,07:20:35,0.180,0.0,0.126,0.003
02/05/2022,07:21:36,0.182,0.0,0.129,0.003
02/05/2022,07:22:35,0.182,0.0,0.133,0.004
02/05/2022,07:23:36,0.182,0.0,0.136,0.003
02/05/2022,07:24:36,0.182,0.0,0.139,0.003
02/05/2022,07:25:36,0.182,0.0,0.142,0.003
02/05/2022,07:26:35,0.181,0.0,0.145,0.003
02/05/2022,07:27:45,0.181,0.0,0.148,0.003
02/05/2022,07:29:36,0.182,0.0,0.154,0.006
02/05/2022,07:30:36,0.182,0.0,0.157,0.003
02/05/2022,07:31:36,0.183,0.0,0.16,0.003
02/05/2022,07:32:36,0.184,0.0,0.163,0.003
02/05/2022,07:33:36,0.187,0.0,0.166,0.003
02/05/2022,07:34:36,0.188,0.0,0.169,0.003
02/05/2022,07:35:35,0.195,0.0,0.172,0.003
02/05/2022,07:36:35,0.202,0.0,0.176,0.004
02/05/2022,07:37:36,0.210,0.0,0.179,0.003
02/05/2022,07:38:36,0.217,1.0,0.183,0.004
02/05/2022,07:39:36,0.222,1.0,0.186,0.003
02/05/2022,07:40:36,0.225,1.0,0.19,0.004
02/05/2022,07:41:36,0.231,1.0,0.194,0.004
02/05/2022,07:42:36,0.236,1.0,0.198,0.004
02/05/2022,07:43:36,0.241,1.0,0.202,0.004
02/05/2022,07:44:36,0.245,1.0,0.206,0.004
02/05/2022,07:45:44,0.251,1.0,0.21,0.004
02/05/2022,07:46:36,0.254,1.0,0.214,0.004
02/05/2022,07:47:35,0.253,1.0,0.218,0.004
02/05/2022,07:48:45,0.252,1.0,0.223,0.005
02/05/2022,07:50:36,0.238,1.0,0.231,0.008
02/05/2022,07:51:36,0.224,1.0,0.235,0.004
02/05/2022,07:52:36,0.209,0.0,0.238,0.003
02/05/2022,07:53:35,0.193,0.0,0.241,0.003
02/05/2022,07:54:35,0.181,0.0,0.245,0.004
02/05/2022,07:55:44,0.172,0.0,0.248,0.003
02/05/2022,07:57:36,0.168,0.0,0.253,0.005
02/05/2022,07:58:36,0.168,0.0,0.256,0.003
02/05/2022,07:59:36,0.165,0.0,0.259,0.003
02/05/2022,08:00:36,0.159,0.0,0.261,0.002
02/05/2022,08:01:45,0.149,0.0,0.264,0.003
02/05/2022,08:02:36,0.144,0.0,0.266,0.002
02/05/2022,08:03:36,0.141,0.0,0.269,0.003
02/05/2022,08:04:36,0.142,0.0,0.271,0.002
02/05/2022,08:05:36,0.147,0.0,0.274,0.003
02/05/2022,08:06:36,0.154,0.0,0.276,0.002
02/05/2022,08:07:36,0.162,0.0,0.279,0.003
02/05/2022,08:08:36,0.174,0.0,0.282,0.003
02/05/2022,08:09:37,0.187,0.0,0.285,0.003
02/05/2022,08:10:44,0.201,0.0,0.288,0.003
02/05/2022,08:11:35,0.211,0.0,0.291,0.003
02/05/2022,08:12:36,0.223,1.0,0.295,0.004
02/05/2022,08:13:44,0.233,1.0,0.299,0.004
02/05/2022,08:14:35,0.242,1.0,0.303,0.004
02/05/2022,08:15:36,0.252,1.0,0.307,0.004
02/05/2022,08:16:36,0.260,1.0,0.311,0.004
02/05/2022,08:17:36,0.264,1.0,0.315,0.004
02/05/2022,08:18:36,0.269,1.0,0.32,0.005
02/05/2022,08:19:36,0.273,1.0,0.324,0.004
02/05/2022,08:21:37,0.290,1.0,0.334,0.01
02/05/2022,08:22:36,0.299,1.0,0.339,0.005
02/05/2022,08:23:36,0.307,1.0,0.344,0.005
02/05/2022,08:24:36,0.314,1.0,0.349,0.005
02/05/2022,08:25:36,0.321,1.0,0.354,0.005
02/05/2022,08:26:36,0.327,1.0,0.36,0.006
02/05/2022,08:27:44,0.334,1.0,0.366,0.006
02/05/2022,08:28:35,0.341,1.0,0.371,0.005
02/05/2022,08:29:35,0.351,1.0,0.376,0.005
02/05/2022,08:30:37,0.362,1.0,0.382,0.006
02/05/2022,08:31:36,0.373,1.0,0.388,0.006
02/05/2022,08:32:36,0.384,1.0,0.395,0.007
02/05/2022,08:33:36,0.393,1.0,0.401,0.006
02/05/2022,08:34:44,0.399,1.0,0.409,0.008
02/05/2022,08:36:36,0.407,1.0,0.421,0.012
02/05/2022,08:37:36,0.413,1.0,0.428,0.007
02/05/2022,08:38:36,0.422,1.0,0.435,0.007
02/05/2022,08:39:36,0.428,1.0,0.442,0.007
02/05/2022,08:40:36,0.435,1.0,0.449,0.007
02/05/2022,08:41:36,0.438,1.0,0.457,0.008
02/05/2022,08:42:35,0.444,1.0,0.464,0.007
02/05/2022,08:43:35,0.451,1.0,0.471,0.007
02/05/2022,08:44:36,0.457,1.0,0.479,0.008
02/05/2022,08:45:36,0.459,1.0,0.487,0.008
02/05/2022,08:46:37,0.450,1.0,0.494,0.007
02/05/2022,08:47:35,0.441,1.0,0.502,0.008
02/05/2022,08:48:36,0.430,1.0,0.509,0.007
02/05/2022,08:49:36,0.420,1.0,0.516,0.007
02/05/2022,08:50:36,0.412,1.0,0.523,0.007
02/05/2022,08:51:36,0.408,1.0,0.53,0.007
02/05/2022,08:52:45,0.405,1.0,0.537,0.007
02/05/2022,08:54:36,0.390,1.0,0.55,0.013
02/05/2022,08:55:36,0.376,1.0,0.556,0.006
02/05/2022,08:56:36,0.362,1.0,0.562,0.006
02/05/2022,08:57:36,0.350,1.0,0.568,0.006
02/05/2022,08:58:36,0.337,1.0,0.574,0.006
02/05/2022,08:59:36,0.324,1.0,0.579,0.005
02/05/2022,09:00:36,0.313,1.0,0.585,0.006
02/05/2022,09:01:36,0.307,1.0,0.59,0.005
02/05/2022,09:02:44,0.305,1.0,0.596,0.006
02/05/2022,09:04:37,0.319,1.0,0.605,0.009
02/05/2022,09:05:36,0.332,1.0,0.611,0.006
02/05/2022,09:06:36,0.346,1.0,0.616,0.005
02/05/2022,09:07:48,0.358,1.0,0.623,0.007
02/05/2022,09:09:36,0.378,1.0,0.634,0.011
02/05/2022,09:10:36,0.387,1.0,0.641,0.007
02/05/2022,09:11:36,0.392,1.0,0.647,0.006
02/05/2022,09:12:36,0.394,1.0,0.654,0.007
02/05/2022,09:13:36,0.394,1.0,0.66,0.006
02/05/2022,09:14:36,0.398,1.0,0.667,0.007
02/05/2022,09:15:36,0.409,1.0,0.674,0.007
02/05/2022,09:16:36,0.429,1.0,0.681,0.007
02/05/2022,09:17:36,0.456,1.0,0.688,0.007
02/05/2022,09:18:36,0.494,1.0,0.696,0.008
02/05/2022,09:19:36,0.537,1.0,0.705,0.009
02/05/2022,09:20:35,0.577,1.0,0.714,0.009
02/05/2022,09:21:36,0.612,1.0,0.724,0.01
02/05/2022,09:22:36,0.638,1.0,0.734,0.01
02/05/2022,09:23:44,0.649,1.0,0.746,0.012
02/05/2022,09:25:36,0.642,1.0,0.767,0.021
02/05/2022,09:26:35,0.626,1.0,0.777,0.01
02/05/2022,09:27:36,0.607,1.0,0.787,0.01
02/05/2022,09:28:44,0.589,1.0,0.799,0.012
02/05/2022,09:30:36,0.574,1.0,0.817,0.018
02/05/2022,09:31:36,0.576,1.0,0.826,0.009
02/05/2022,09:32:35,0.583,1.0,0.836,0.01
02/05/2022,09:33:36,0.588,1.0,0.846,0.01
02/05/2022,09:34:36,0.591,1.0,0.856,0.01
02/05/2022,09:35:36,0.590,1.0,0.865,0.009
02/05/2022,09:36:36,0.581,1.0,0.875,0.01
02/05/2022,09:37:36,0.571,1.0,0.885,0.01
02/05/2022,09:38:44,0.559,1.0,0.896,0.011
02/05/2022,09:40:36,0.546,1.0,0.913,0.017
02/05/2022,09:41:36,0.552,1.0,0.922,0.009
02/05/2022,09:42:36,0.563,1.0,0.931,0.009
02/05/2022,09:43:36,0.568,1.0,0.941,0.01
02/05/2022,09:44:36,0.571,1.0,0.95,0.009
02/05/2022,09:45:36,0.578,1.0,0.96,0.01
02/05/2022,09:46:36,0.589,1.0,0.969,0.009
02/05/2022,09:47:36,0.601,1.0,0.979,0.01
02/05/2022,09:48:44,0.619,1.0,0.991,0.012
02/05/2022,09:50:37,0.662,2.0,1.011,0.02
02/05/2022,09:51:36,0.682,2.0,1.022,0.011
02/05/2022,09:52:36,0.691,2.0,1.033,0.011
02/05/2022,09:53:36,0.696,2.0,1.045,0.012
02/05/2022,09:54:36,0.702,2.0,1.056,0.011
02/05/2022,09:55:45,0.712,2.0,1.07,0.014
02/05/2022,09:57:37,0.741,2.0,1.093,0.023
02/05/2022,09:58:35,0.758,2.0,1.105,0.012
02/05/2022,09:59:36,0.770,2.0,1.118,0.013
02/05/2022,10:00:36,0.776,2.0,1.13,0.012
02/05/2022,10:01:36,0.779,2.0,1.143,0.013
02/05/2022,10:02:36,0.785,2.0,1.156,0.013
02/05/2022,10:03:36,0.791,2.0,1.17,0.014
02/05/2022,10:04:36,0.801,2.0,1.183,0.013
02/05/2022,10:05:36,0.817,2.0,1.196,0.013
02/05/2022,10:06:36,0.845,2.0,1.21,0.014
02/05/2022,10:07:36,0.877,2.0,1.225,0.015
02/05/2022,10:08:36,0.899,2.0,1.239,0.014
02/05/2022,10:09:36,0.914,2.0,1.254,0.015
02/05/2022,10:10:36,0.927,2.0,1.27,0.016
02/05/2022,10:11:36,0.934,2.0,1.285,0.015
02/05/2022,10:12:36,0.940,2.0,1.301,0.016
02/05/2022,10:13:36,0.939,2.0,1.317,0.016
02/05/2022,10:14:36,0.929,2.0,1.332,0.015
02/05/2022,10:15:36,0.916,2.0,1.348,0.016
02/05/2022,10:16:44,0.905,2.0,1.365,0.017
02/05/2022,10:18:37,0.929,2.0,1.393,0.028
02/05/2022,10:19:36,0.950,2.0,1.409,0.016
02/05/2022,10:20:36,0.965,2.0,1.425,0.016
02/05/2022,10:21:36,0.977,2.0,1.441,0.016
02/05/2022,10:22:36,0.979,2.0,1.457,0.016
02/05/2022,10:23:36,0.969,2.0,1.474,0.017
02/05/2022,10:24:36,0.958,2.0,1.49,0.016
02/05/2022,10:25:36,0.939,2.0,1.506,0.016
02/05/2022,10:26:45,0.906,2.0,1.523,0.017
02/05/2022,10:28:36,0.862,2.0,1.55,0.027
02/05/2022,10:29:36,0.721,2.0,1.565,0.015
02/05/2022,10:30:36,0.822,2.0,1.578,0.013
02/05/2022,10:31:37,0.815,2.0,1.592,0.014
02/05/2022,10:32:36,0.806,2.0,1.605,0.013
02/05/2022,10:33:36,0.792,2.0,1.619,0.014
02/05/2022,10:34:36,0.774,2.0,1.632,0.013
02/05/2022,10:35:36,0.748,2.0,1.644,0.012
02/05/2022,10:36:36,0.723,2.0,1.657,0.013
02/05/2022,10:37:36,0.703,2.0,1.668,0.011
02/05/2022,10:38:36,0.693,2.0,1.68,0.012
02/05/2022,10:39:36,0.681,2.0,1.692,0.012